Regional Weather Roundup
Issued by NWS

Home | Current Version | Previous Version | Text Only | Print | Product List | Glossary On
Versions: 1 2 3 4 5 6 7 8 9 10 11 12 13 14 15 16 17 18 19 20 21 22 23 24 25 26 27 28 29 30 31 32 33 34 35 36 37 38 39 40 41 42 43 44 45 46 47 48 49 50
000
ASUS43 KDTX 231610
RWRMI
MICHIGAN HOURLY REGIONAL WEATHER ROUNDUP
NATIONAL WEATHER SERVICE DETROIT/PONTIAC MI
1200 PM EDT WED APR 23 2014

NOTE: "FAIR" INDICATES FEW OR NO CLOUDS BELOW 12,000 FEET WITH NO
SIGNIFICANT WEATHER AND/OR OBSTRUCTION TO VISIBILITY.

MIZ047>049-052>055-059>063-066>070-074>076-081>083-231700-
SOUTHEAST LOWER MICHIGAN

CITY           SKY/WX    TMP DP  RH WIND       PRES   REMARKS
ADRIAN         SUNNY     47  29  49 N13       30.10F
ALMA           SUNNY     45  20  37 N8        30.13S
ANN ARBOR      SUNNY     47  28  47 N13G22    30.09F
BAD AXE        SUNNY     40  25  56 N13G20    30.10S WCI  32
CARO           SUNNY     45  31  56 N10G17    30.11R
DETROIT CITY   MOSUNNY   48  28  46 N10G18    30.09S
DETROIT        MOSUNNY   48  30  49 NW12G20   30.11R
FLINT          SUNNY     48  25  40 N12       30.12R
GROSSE ILE     PTSUNNY   45  28  53 N13G20    30.09S
HILLSDALE      SUNNY     47  27  44 NE9G16    30.09S
HOWELL         SUNNY     45  26  47 NW7G16    30.10S

CITY           SKY/WX    TMP DP  RH WIND       PRES   REMARKS
JACKSON        SUNNY     47  25  42 N10G20    30.10F
LAMBERTVILLE   MOSUNNY   46  30  53 N6        30.10
LANSING        SUNNY     46  24  42 NW7       30.13S
LAPEER         FAIR      44  28  53 N12       30.10R
MASON          SUNNY     45  26  46 N9G16     30.11F
MONROE         MOSUNNY   45  30  57 NW5G20    30.09S
MT. CLEMENS    MOSUNNY   46  30  52 NW15      30.07R
PONTIAC        PTSUNNY   43  26  51 NW10      30.09R
PORT HOPE        N/A     39  27  62 N6        30.10R WCI  35
PORT HURON     PTSUNNY   45  32  61 N7        30.08R
TRI CITIES     SUNNY     47  19  33 NE8       30.13R
TROY           MOSUNNY   45  29  53 NW5G18    30.10S
SAGINAW HB     SUNNY     45  23  42 N12G18    30.12R
YPSILANTI      MOSUNNY   49  29  46 N10G20    30.10S
$$
MIZ043>046-050>051-056>058-064>065-071>073-077>080-231700-
SOUTHWEST LOWER MICHIGAN

CITY           SKY/WX    TMP DP  RH WIND       PRES   REMARKS
BATTLE CREEK   SUNNY     47  26  44 NE8       30.12F
BENTON HARBOR  SUNNY     42  32  67 NW9       30.16R
BIG RAPIDS     SUNNY     46  20  35 N8        30.12F
COLDWATER      SUNNY     46  27  46 N10G16    30.11F
FREMONT        FAIR      47  22  36 N7        30.14S
HOLLAND        SUNNY     48  24  39 NE7       30.16R
GRAND RAPIDS   MOSUNNY   49  23  36 VRB7      30.13F
IONIA          FAIR      46  23  41 NE7       30.12S
KALAMAZOO      SUNNY     47  25  42 N9        30.13F
LUDINGTON      SUNNY     47  25  43 N9G18     30.16S
MARSHALL       SUNNY     45  25  46 N5        30.11S
MOUNT PLEASANT SUNNY     48  18  30 N12       30.12R
MUSKEGON       MOSUNNY   49  22  34 VRB7      30.15F
SOUTH HAVEN    SUNNY     44  30  59 NW10      30.16R
$$
MIZ016>042-231700-
NORTHERN LOWER MICHIGAN

CITY           SKY/WX    TMP DP  RH WIND       PRES   REMARKS
ALPENA         SUNNY     44   8  23 N10       30.12R
BEAVER ISLAND  SUNNY     41  15  33 NW6       30.18R
BELLAIRE       SUNNY     44  20  38 NW3       30.16R
CADILLAC       SUNNY     44  20  37 N12       30.12S
CHARLEVOIX     SUNNY     39  22  52 NW8       30.21R WCI  33
FRANKFORT      SUNNY     43  20  40 N7        30.17F
GAYLORD        SUNNY     41   5  22 N8        30.11S
GRAYLING       SUNNY     45   9  22 NW9       30.12R
HARBOR SPRINGS SUNNY     38  25  61 W8        30.15R WCI  32
HOUGHTON LAKE  SUNNY     46  10  23 MISG      30.12R
MANISTEE       SUNNY     43  27  52 N10       30.17F
OSCODA         SUNNY     46  17  31 NE12      30.10S
PELLSTON       SUNNY     44  13  28 VRB5      30.15S
ROGERS CITY    SUNNY     39  16  40 NW10      30.15R WCI  32
TRAVERSE CITY  MOSUNNY   43  20  39 VRB6      30.16S
$$
MIZ007>008-015-231700-
EASTERN UPPER MICHIGAN

CITY           SKY/WX    TMP DP  RH WIND       PRES   REMARKS
KINROSS        SUNNY     39  10  30 NW14G21   30.13S WCI  31
MACKINAC ISLAN SUNNY     37  22  54 W5        30.14S WCI  33
NEWBERRY       SUNNY     39  15  37 N13G18    30.16R WCI  31
S. S. MARIE    SUNNY     40  16  37 NW13      30.14R WCI  32
MUNISING         N/A     36  29  75 NE7       30.19S WCI  30
$$
MIZ004>006-011>014-085-231700-
CENTRAL UPPER MICHIGAN

CITY           SKY/WX    TMP DP  RH WIND       PRES   REMARKS
MANISTIQUE     SUNNY     46  15  28 N9G20     30.17R
ESCANABA       SUNNY     45  19  36 NE8       30.18S
MENOMINEE      SUNNY     43  21  42 SE10      30.20R
SAWYER-GWINN   SUNNY     41  19  42 NE5       30.17R
$$
MIZ001>003-009>011-084-231700-
WESTERN UPPER MICHIGAN

CITY           SKY/WX    TMP DP  RH WIND       PRES   REMARKS
IRON MOUNTAIN  SUNNY     44  19  36 CALM      30.15F
HOUGHTON         N/A    N/A N/A N/A MISG      30.16S
COPPER HARBOR    N/A     37  29  72 N8        30.18R WCI  31
IRONWOOD       MOSUNNY   48  25  40 SE8       30.09F
$$

ABBREVIATIONS USED IN REMARKS
   TC - TEMPERATURE IN CELSIUS
  WCI - WIND CHILL INDEX
   HX - HEAT INDEX
  VSB - VISIBILITY




USA.gov is the U.S. government's official web portal to all federal, state and local government web resources and services.